Change the Weather History Date:

Saturday, August 3, 2013

  Actual Average Record
Temperature  
Mean Temperature 64 °F -  
Max Temperature 71 °F 67 °F 77 °F (2011)
Min Temperature 57 °F 53 °F 48 °F (2003)
Degree Days  
Heating Degree Days 1    
Growing Degree Days 14 (Base 50)    
Moisture  
Dew Point 53 °F    
Average Humidity 70    
Maximum Humidity 94    
Minimum Humidity 41    
Precipitation  
Precipitation 0.00 in 0.10 in - ()
Sea Level Pressure  
Sea Level Pressure 29.87 in    
Wind  
Wind Speed 10 mph ()    
Max Wind Speed 21 mph    
Max Gust Speed -    
Visibility 6.2 miles    
Events Rain , Thunderstorm    
Averages and records for this station are not official NWS values.
T = Trace of Precipitation, MM = Missing Value Source: Averaged Metar Reports

Daily Weather History Graph

Daily Weather History Graph

Search for Another Location

Airport or City:

Trip Planner

Search our weather history database for the weather conditions in past years. The results will help you decide how hot, cold, wet, or windy it might be!

Date:

Astronomy

Aug. 03, 2013 Rise Set
Actual Time 5:28 AM BST 9:00 PM BST
Civil Twilight 4:45 AM BST 9:43 PM BST
Nautical Twilight 3:47 AM BST 10:41 PM BST
Astronomical Twilight 2:14 AM BST 12:09 AM BST
Moon 2:19 AM BST (8/3) 6:37 PM BST (8/3)
Length of Visible Light 16h 57m
Length of Day
15h 31m
Waning Crescent, 11% of the Moon is Illuminated
Aug 3
Waning Crescent
Aug 6
New
Aug 14
First Quarter
Aug 21
Full
Aug 28
Last Quarter

Hourly Weather History & Observations

Time (BST) Temp. Dew Point Humidity Pressure Visibility Wind Dir Wind Speed Gust Speed Precip Events Conditions
12:20 AM 62.6 °F 55.4 °F 77% 29.71 in 6.2 mi South 10.4 mph - N/A Rain Light Rain
12:50 AM 60.8 °F 57.2 °F 88% 29.71 in 6.2 mi SSW 9.2 mph - N/A Rain , Thunderstorm Light Rain
1:20 AM 59.0 °F 57.2 °F 94% 29.71 in 6.2 mi South 8.1 mph - N/A Thunderstorm Scattered Clouds
1:50 AM 59.0 °F 55.4 °F 88% 29.71 in 6.2 mi SSW 8.1 mph - N/A   Scattered Clouds
2:20 AM 59.0 °F 55.4 °F 88% 29.71 in 6.2 mi South 9.2 mph - N/A   Partly Cloudy
2:50 AM 59.0 °F 55.4 °F 88% 29.71 in 5.6 mi SSW 10.4 mph - N/A Rain Light Rain
3:20 AM 59.0 °F 57.2 °F 94% 29.71 in 6.2 mi South 10.4 mph - N/A Rain Light Rain Showers
3:50 AM 57.2 °F 55.4 °F 94% 29.74 in - SSW 9.2 mph - N/A   Clear
4:20 AM 57.2 °F 55.4 °F 94% 29.74 in - SSW 10.4 mph - N/A   Clear
4:50 AM 57.2 °F 55.4 °F 94% 29.74 in 6.2 mi SSW 10.4 mph - N/A   Partly Cloudy
5:20 AM 57.2 °F 55.4 °F 94% 29.77 in 6.2 mi South 10.4 mph - N/A   Partly Cloudy
5:50 AM 57.2 °F 55.4 °F 94% 29.77 in 6.2 mi South 10.4 mph - N/A Rain Light Rain Showers
6:20 AM 57.2 °F 55.4 °F 94% 29.77 in 6.2 mi SSW 11.5 mph - N/A   Partly Cloudy
6:50 AM 57.2 °F 55.4 °F 94% 29.80 in 6.2 mi SSW 11.5 mph - N/A   Partly Cloudy
7:20 AM 57.2 °F 55.4 °F 94% 29.80 in 6.2 mi SSW 11.5 mph - N/A   Partly Cloudy
7:50 AM 59.0 °F 55.4 °F 88% 29.80 in 6.2 mi SSW 9.2 mph - N/A   Partly Cloudy
8:20 AM 60.8 °F 55.4 °F 82% 29.83 in 6.2 mi SW 12.7 mph - N/A   Partly Cloudy
8:50 AM 62.6 °F 55.4 °F 77% 29.83 in 6.2 mi SSW 11.5 mph - N/A   Partly Cloudy
9:20 AM 62.6 °F 55.4 °F 77% 29.83 in 6.2 mi SW 12.7 mph - N/A   Scattered Clouds
9:50 AM 62.6 °F 55.4 °F 77% 29.86 in 6.2 mi SW 11.5 mph - N/A   Scattered Clouds
10:20 AM 62.6 °F 55.4 °F 77% 29.86 in 6.2 mi SW 12.7 mph - N/A Rain Light Rain Showers
10:50 AM 64.4 °F 55.4 °F 73% 29.86 in 6.2 mi WSW 13.8 mph - N/A   Scattered Clouds
11:20 AM 64.4 °F 53.6 °F 68% 29.89 in 6.2 mi WSW 15.0 mph - N/A   Scattered Clouds
11:50 AM 66.2 °F 51.8 °F 60% 29.89 in 6.2 mi WSW 15.0 mph - N/A   Partly Cloudy
12:20 PM 68.0 °F 51.8 °F 56% 29.89 in 6.2 mi West 16.1 mph - N/A   Scattered Clouds
12:50 PM 69.8 °F 50.0 °F 49% 29.89 in 6.2 mi WSW 19.6 mph - N/A   Partly Cloudy
1:20 PM 69.8 °F 48.2 °F 46% 29.92 in 6.2 mi WSW 18.4 mph - N/A   Partly Cloudy
1:50 PM 71.6 °F 46.4 °F 41% 29.92 in 6.2 mi WSW 20.7 mph - N/A   Partly Cloudy
2:20 PM 69.8 °F 46.4 °F 43% 29.92 in 6.2 mi WSW 17.3 mph - N/A   Scattered Clouds
2:50 PM 69.8 °F 48.2 °F 46% 29.92 in 6.2 mi West 15.0 mph - N/A   Scattered Clouds
3:20 PM 69.8 °F 48.2 °F 46% 29.95 in 6.2 mi West 16.1 mph - N/A   Scattered Clouds
3:50 PM 71.6 °F 48.2 °F 43% 29.95 in 6.2 mi WSW 16.1 mph - N/A   Scattered Clouds
4:20 PM 71.6 °F 46.4 °F 41% 29.95 in 6.2 mi WSW 17.3 mph - N/A   Scattered Clouds
4:50 PM 71.6 °F 48.2 °F 43% 29.95 in 6.2 mi West 16.1 mph - N/A   Scattered Clouds
5:20 PM 71.6 °F 48.2 °F 43% 29.95 in 6.2 mi West 16.1 mph - N/A   Scattered Clouds
5:50 PM 71.6 °F 50.0 °F 46% 29.95 in 6.2 mi WSW 11.5 mph - N/A   Partly Cloudy
6:20 PM 69.8 °F 48.2 °F 46% 29.95 in 6.2 mi WSW 13.8 mph - N/A   Partly Cloudy
6:50 PM 69.8 °F 48.2 °F 46% 29.95 in 6.2 mi SW 12.7 mph - N/A   Partly Cloudy
7:20 PM 68.0 °F 50.0 °F 52% 29.98 in 6.2 mi West 11.5 mph - N/A   Partly Cloudy
7:50 PM 64.4 °F 50.0 °F 59% 29.98 in 6.2 mi West 9.2 mph - N/A   Partly Cloudy
8:20 PM 62.6 °F 50.0 °F 63% 29.98 in 6.2 mi SW 3.5 mph - N/A   Partly Cloudy
8:50 PM 62.6 °F 51.8 °F 68% 29.98 in 6.2 mi South 3.5 mph - N/A   Partly Cloudy
9:20 PM 62.6 °F 51.8 °F 68% 30.01 in 6.2 mi SW 8.1 mph - N/A   Partly Cloudy
9:50 PM 60.8 °F 53.6 °F 77% 30.01 in 6.2 mi SW 4.6 mph - N/A   Partly Cloudy
10:20 PM 60.8 °F 53.6 °F 77% 30.01 in 6.2 mi SSW 8.1 mph - N/A   Partly Cloudy
10:50 PM 60.8 °F 53.6 °F 77% 30.01 in 6.2 mi SSW 9.2 mph - N/A Rain Light Rain
11:20 PM 60.8 °F 53.6 °F 77% 30.01 in 6.2 mi SSW 9.2 mph - N/A Rain Light Rain
11:50 PM 59.0 °F 53.6 °F 82% 30.01 in 6.2 mi SSW 8.1 mph - N/A Rain Light Rain Showers